Location: Karcze
(52.0945°N, 22.4786°E)
Time: 22:07:43
(UTC+00:00)

Transit 4A - Pass Details

Date: 30 July 2021
Orbit: 871 x 974 km, 66.8° (Epoch: 18 September)

Event Time Altitude Azimuth Distance (km) Brightness Sun altitude
Exits shadow 00:04:17 21° 236° (WSW) 1,893 9.1 -16.9°
Maximum altitude 00:08:18 64° 314° (NW) 967 8.1 -16.6°
Drops below altitude 10° 00:14:06 10° 36° (NE) 2,529 11.5 -16.3°
Sets 00:16:37 0° 40° (NE) 3,472 12.4 -16.1°
